This is the latest recevied weather packets stored in our database for station/object CN8UN-10. If no packets are shown the sender has not sent any weather packets the latest 1 day(s).
| Time | Temp. | Humidity | Pressure | Rain* | Wind** | Luminosity | Snow |
|---|---|---|---|---|---|---|---|
| 1778011496 | 18.89° C | 100% | 0 hPa | 0 mm | 1.79 m/s, 18° | - | - |
| 1778011196 | 18.89° C | 100% | 0 hPa | 0 mm | 1.79 m/s, 12° | - | - |
| 1778010896 | 18.89° C | 100% | 0 hPa | 0 mm | 1.34 m/s, 357° | - | - |
| 1778010596 | 18.89° C | 100% | 0 hPa | 0 mm | 0.89 m/s, 1° | - | - |
| 1778010296 | 18.89° C | 100% | 0 hPa | 0 mm | 3.13 m/s, 16° | - | - |
| 1778010001 | 18.89° C | 100% | 0 hPa | 0 mm | 3.13 m/s, 355° | - | - |
| 1778009696 | 18.89° C | 100% | 0 hPa | 0 mm | 0.45 m/s, 355° | - | - |
| 1778009396 | 18.89° C | 100% | 0 hPa | 0 mm | 2.68 m/s, 351° | - | - |
| 1778009096 | 18.89° C | 100% | 0 hPa | 0 mm | 2.24 m/s, 358° | - | - |
| 1778008796 | 18.89° C | 100% | 0 hPa | 0 mm | 1.34 m/s, 323° | - | - |
| 1778008496 | 18.89° C | 100% | 0 hPa | 0 mm | 0.45 m/s, 279° | - | - |
| 1778008196 | 18.89° C | 100% | 0 hPa | 0 mm | 3.58 m/s, 329° | - | - |
| 1778007896 | 18.89° C | 100% | 0 hPa | 0 mm | 1.79 m/s, 334° | - | - |
| 1778007596 | 18.89° C | 100% | 0 hPa | 0 mm | 1.34 m/s, 7° | - | - |
| 1778007296 | 18.89° C | 100% | 0 hPa | 0 mm | 2.24 m/s, 315° | - | - |
| 1778006996 | 18.89° C | 100% | 0 hPa | 0 mm | 1.79 m/s, 330° | - | - |
| 1778006696 | 19.44° C | 100% | 0 hPa | 0 mm | 2.68 m/s, 323° | - | - |
| 1778006396 | 18.89° C | 100% | 0 hPa | 0 mm | 2.24 m/s, 2° | - | - |
| 1778006096 | 18.89° C | 100% | 0 hPa | 0 mm | 4.02 m/s, 330° | - | - |
| 1778005796 | 18.89° C | 100% | 0 hPa | 0 mm | 3.58 m/s, 29° | - | - |
| 1778005496 | 19.44° C | 100% | 0 hPa | 0 mm | 3.58 m/s, 358° | - | - |
| 1778005196 | 19.44° C | 100% | 0 hPa | 0 mm | 4.02 m/s, 341° | - | - |
| 1778004896 | 18.89° C | 100% | 0 hPa | 0 mm | 5.81 m/s, 12° | - | - |
| 1778004596 | 19.44° C | 100% | 0 hPa | 0 mm | 2.68 m/s, 286° | - | - |
| 1778004296 | 19.44° C | 100% | 0 hPa | 0 mm | 1.34 m/s, 330° | - | - |
* Rain latest hour (hover to see other rain measurements)
** Current wind speed in m/s (hover to see current wind gust speed)